1/10/23
Time         Wind Dir  Wind Gust   Humidity       Temp   Tot Rain Wind Chill Heat Index  Dew Point   Barom SL Temp Out H Temp Out L  DailyRain   HourRain   24HrRain   RainRate   Wind Run   Deg Heat   Deg Cool  MonthRain
                          km/hr          %         C         mm         C         C         C         mb         C         C         mm         mm         mm      mm/hr         km         C         C         mm
0:00              243        0.0         48       24.3      160.8       24.3       24.6       12.6     1018.5       24.3       24.3        0.0        0.0        0.0       0.00        0.0       0.00       5.98        0.0
0:02              243        0.0         48       24.2      160.8       24.2       24.6       12.5     1018.5       24.3       24.2        0.0        0.0        0.0       0.00        0.0       0.00       0.02        0.0
0:04              243        0.0         48       24.2      160.8       24.2       24.5       12.5     1018.5       24.3       24.2        0.0        0.0        0.0       0.00        0.0       0.00       0.02        0.0
0:06              243        0.0         48       24.1      160.8       24.1       24.5       12.4     1018.5       24.3       24.1        0.0        0.0        0.0       0.00        0.0       0.00       0.02        0.0
0:08              243        0.0         48       24.1      160.8       24.1       24.4       12.4     1018.5       24.3       24.1        0.0        0.0        0.0       0.00        0.0       0.00       0.02        0.0
0:10              243        0.0         48       24.0      160.8       24.0       24.3       12.3     1018.5       24.3       24.0        0.0        0.0        0.0       0.00        0.0       0.00       0.02        0.0
0:12              243        0.0         48       24.0      160.8       24.0       24.3       12.3     1018.5       24.3       24.0        0.0        0.0        0.0       0.00        0.0       0.00       0.02        0.0
0:14              243        0.0         48       23.9      160.8       23.9       24.3       12.3     1018.6       24.3       23.9        0.0        0.0        0.0       0.00        0.0       0.00       0.02        0.0
0:16              243        0.0         48       23.9      160.8       23.9       24.2       12.2     1018.5       24.3       23.9        0.0        0.0        0.0       0.00        0.0       0.00       0.04        0.0
0:18              243        0.0         48       23.9      160.8       23.9       24.2       12.2     1018.5       24.3       23.9        0.0        0.0        0.0       0.00        0.0       0.00       0.04        0.0
0:20              243        0.0         48       23.8      160.8       23.8       24.2       12.2     1018.5       24.3       23.8        0.0        0.0        0.0       0.00        0.0       0.00       0.04        0.0
0:22              243        0.0         48       23.8      160.8       23.8       24.1       12.1     1018.5       24.3       23.8        0.0        0.0        0.0       0.00        0.0       0.00       0.04        0.0
0:24              243        0.0         47       23.8      160.8       23.8       24.1       11.8     1018.5       24.3       23.8        0.0        0.0        0.0       0.00        0.0       0.00       0.04        0.0
0:26              243        0.0         47       23.8      160.8       23.8       24.1       11.8     1018.5       24.3       23.8        0.0        0.0        0.0       0.00        0.0       0.00       0.04        0.0
0:28              243        0.0         46       23.8      160.8       23.8       24.0       11.5     1018.5       24.3       23.8        0.0        0.0        0.0       0.00        0.0       0.00       0.04        0.0
0:30              243        0.0         46       23.8      160.8       23.8       24.0       11.5     1018.4       24.3       23.7        0.0        0.0        0.0       0.00        0.0       0.00       0.04        0.0
0:32              243        0.0         46       23.7      160.8       23.7       24.0       11.4     1018.4       24.3       23.7        0.0        0.0        0.0       0.00        0.0       0.00       0.06        0.0
0:34              243        0.0         45       23.7      160.8       23.7       23.9       11.1     1018.4       24.3       23.7        0.0        0.0        0.0       0.00        0.0       0.00       0.06        0.0
0:36              243        0.0         45       23.7      160.8       23.7       23.9       11.1     1018.4       24.3       23.7        0.0        0.0        0.0       0.00        0.0       0.00       0.06        0.0
0:38              258        0.0         45       23.7      160.8       23.7       23.9       11.0     1018.4       24.3       23.7        0.0        0.0        0.0       0.00        0.0       0.00       0.06        0.0
0:40              263        0.0         44       23.7      160.8       23.7       23.8       10.7     1018.3       24.3       23.7        0.0        0.0        0.0       0.00        0.0       0.00       0.06        0.0
0:42              263        0.0         44       23.7      160.8       23.7       23.9       10.8     1018.4       24.3       23.7        0.0        0.0        0.0       0.00        0.0       0.00       0.06        0.0
0:44              264        0.0         44       23.7      160.8       23.7       23.8       10.7     1018.3       24.3       23.7        0.0        0.0        0.0       0.00        0.0       0.00       0.06        0.0
0:46              265        0.0         43       23.7      160.8       23.7       23.8       10.4     1018.3       24.3       23.7        0.0        0.0        0.0       0.00        0.0       0.00       0.08        0.0
0:48              265        0.0         44       23.7      160.8       23.7       23.9       10.8     1018.2       24.3       23.7        0.0        0.0        0.0       0.00        0.0       0.00       0.08        0.0
0:50              265        0.0         43       23.7      160.8       23.7       23.8       10.4     1018.3       24.3       23.7        0.0        0.0        0.0       0.00        0.0       0.00       0.08        0.0
0:52              268        0.0         43       23.7      160.8       23.7       23.8       10.4     1018.2       24.3       23.7        0.0        0.0        0.0       0.00        0.0       0.00       0.08        0.0
0:54              277        0.0         43       23.7      160.8       23.7       23.8       10.4     1018.3       24.3       23.7        0.0        0.0        0.0       0.00        0.0       0.00       0.08        0.0
0:56              277        0.0         43       23.7      160.8       23.7       23.8       10.4     1018.3       24.3       23.6        0.0        0.0        0.0       0.00        0.0       0.00       0.08        0.0
0:58              277        0.0         43       23.6      160.8       23.6       23.7       10.3     1018.2       24.3       23.6        0.0        0.0        0.0       0.00        0.0       0.00       0.08        0.0
1:00              277        0.0         44       23.6      160.8       23.6       23.8       10.7     1018.3       24.3       23.6        0.0        0.0        0.0       0.00        0.0       0.00       0.08        0.0
1:02              279        0.0         44       23.6      160.8       23.6       23.7       10.6     1018.2       24.3       23.6        0.0        0.0        0.0       0.00        0.0       0.00       0.10        0.0
1:04              298        0.0         44       23.5      160.8       23.5       23.6       10.6     1018.2       24.3       23.5        0.0        0.0        0.0       0.00        0.0       0.00       0.10        0.0
1:06              344        0.0         44       23.4      160.8       23.4       23.6       10.5     1018.1       24.3       23.4        0.0        0.0        0.0       0.00        0.0       0.00       0.10        0.0
1:08              344        0.0         44       23.4      160.8       23.4       23.6       10.5     1018.2       24.3       23.4        0.0        0.0        0.0       0.00        0.0       0.00       0.10        0.0
1:10              344        0.0         44       23.4      160.8       23.4       23.5       10.5     1018.2       24.3       23.4        0.0        0.0        0.0       0.00        0.0       0.00       0.10        0.0
1:12              344        0.0         44       23.4      160.8       23.4       23.5       10.5     1018.2       24.3       23.4        0.0        0.0        0.0       0.00        0.0       0.00       0.10        0.0
1:13              344        0.0         44       23.4      160.8       23.4       23.5       10.5     1018.2       24.3       23.4        0.0        0.0        0.0       0.00        0.0       0.00       0.10        0.0
1:16              355        0.0         44       23.3      160.8       23.3       23.5       10.4     1018.1       24.3       23.3        0.0        0.0        0.0       0.00        0.0       0.00       0.11        0.0
1:18              355        0.0         44       23.3      160.8       23.3       23.5       10.4     1018.1       24.3       23.3        0.0        0.0        0.0       0.00        0.0       0.00       0.11        0.0
1:20                9        0.0         44       23.3      160.8       23.3       23.4       10.4     1018.2       24.3       23.3        0.0        0.0        0.0       0.00        0.0       0.00       0.11        0.0
1:22               14        0.0         44       23.3      160.8       23.3       23.4       10.4     1018.2       24.3       23.3        0.0        0.0        0.0       0.00        0.0       0.00       0.11        0.0
1:23               14        0.0         44       23.3      160.8       23.3       23.4       10.4     1018.2       24.3       23.3        0.0        0.0        0.0       0.00        0.0       0.00       0.11        0.0
1:26               14        0.0         45       23.3      160.8       23.3       23.5       10.7     1018.2       24.3       23.2        0.0        0.0        0.0       0.00        0.0       0.00       0.11        0.0
1:28               14        0.0         45       23.2      160.8       23.2       23.4       10.6     1018.1       24.3       23.2        0.0        0.0        0.0       0.00        0.0       0.00       0.11        0.0
1:30               13        0.0         45       23.2      160.8       23.2       23.4       10.6     1018.1       24.3       23.2        0.0        0.0        0.0       0.00        0.0       0.00       0.11        0.0
1:32               13        0.0         45       23.2      160.8       23.2       23.4       10.6     1018.1       24.3       23.2        0.0        0.0        0.0       0.00        0.0       0.00       0.12        0.0
1:34               13        0.0         45       23.1      160.8       23.1       23.3       10.5     1018.2       24.3       23.1        0.0        0.0        0.0       0.00        0.0       0.00       0.12        0.0
1:36               13        0.0         45       23.1      160.8       23.1       23.3       10.5     1018.2       24.3       23.1        0.0        0.0        0.0       0.00        0.0       0.00       0.12        0.0
1:38               13        0.0         45       23.1      160.8       23.1       23.2       10.5     1018.1       24.3       23.1        0.0        0.0        0.0       0.00        0.0       0.00       0.12        0.0
1:40               13        0.0         46       23.0      160.8       23.0       23.2       10.8     1018.1       24.3       23.0        0.0        0.0        0.0       0.00        0.0       0.00       0.12        0.0
1:42               13        0.0         46       22.9      160.8       22.9       23.2       10.7     1018.1       24.3       22.9        0.0        0.0        0.0       0.00        0.0       0.00       0.12        0.0
1:44               13        0.0         46       22.9      160.8       22.9       23.1       10.7     1018.2       24.3       22.9        0.0        0.0        0.0       0.00        0.0       0.00       0.12        0.0
1:46               13        0.0         46       22.9      160.8       22.9       23.1       10.7     1018.1       24.3       22.9        0.0        0.0        0.0       0.00        0.0       0.00       0.13        0.0
1:48               13        0.0         46       22.8      160.8       22.8       23.1       10.6     1018.1       24.3       22.8        0.0        0.0        0.0       0.00        0.0       0.00       0.13        0.0
1:50               13        0.0         47       22.8      160.8       22.8       23.1       10.9     1018.2       24.3       22.8        0.0        0.0        0.0       0.00        0.0       0.00       0.13        0.0
1:52               13        0.0         47       22.7      160.8       22.7       23.0       10.8     1018.1       24.3       22.7        0.0        0.0        0.0       0.00        0.0       0.00       0.13        0.0
1:54               13        0.0         47       22.7      160.8       22.7       23.0       10.8     1018.2       24.3       22.7        0.0        0.0        0.0       0.00        0.0       0.00       0.13        0.0
1:56               13        0.0         47       22.6      160.8       22.6       22.9       10.7     1018.1       24.3       22.6        0.0        0.0        0.0       0.00        0.0       0.00       0.13        0.0
1:58               13        0.0         47       22.6      160.8       22.6       22.8       10.7     1018.1       24.3       22.6        0.0        0.0        0.0       0.00        0.0       0.00       0.13        0.0
2:00               13        0.0         47       22.6      160.8       22.6       22.8       10.7     1018.1       24.3       22.6        0.0        0.0        0.0       0.00        0.0       0.00       0.13        0.0
2:02               13        0.0         48       22.5      160.8       22.5       22.8       11.0     1018.2       24.3       22.5        0.0        0.0        0.0       0.00        0.0       0.00       0.14        0.0
2:04               13        0.0         48       22.5      160.8       22.5       22.8       11.0     1018.1       24.3       22.5        0.0        0.0        0.0       0.00        0.0       0.00       0.14        0.0
2:06               13        0.0         48       22.4      160.8       22.4       22.8       10.9     1018.2       24.3       22.4        0.0        0.0        0.0       0.00        0.0       0.00       0.14        0.0
2:07               13        0.0         48       22.4      160.8       22.4       22.7       10.9     1018.0       24.3       22.4        0.0        0.0        0.0       0.00        0.0       0.00       0.14        0.0
2:10               13        0.0         49       22.4      160.8       22.4       22.8       11.2     1018.1       24.3       22.4        0.0        0.0        0.0       0.00        0.0       0.00       0.14        0.0
2:12               13        0.0         49       22.3      160.8       22.3       22.7       11.1     1018.0       24.3       22.3        0.0        0.0        0.0       0.00        0.0       0.00       0.14        0.0
2:14               13        0.0         49       22.3      160.8       22.3       22.7       11.1     1018.0       24.3       22.3        0.0        0.0        0.0       0.00        0.0       0.00       0.14        0.0
2:16               13        0.0         50       22.2      160.8       22.2       22.7       11.3     1018.1       24.3       22.2        0.0        0.0        0.0       0.00        0.0       0.00       0.14        0.0
2:18               13        0.0         50       22.2      160.8       22.2       22.6       11.3     1018.0       24.3       22.2        0.0        0.0        0.0       0.00        0.0       0.00       0.14        0.0
2:20               13        0.0         50       22.1      160.8       22.1       22.6       11.2     1018.0       24.3       22.1        0.0        0.0        0.0       0.00        0.0       0.00       0.14        0.0
2:22               13        0.0         50       22.1      160.8       22.1       22.5       11.2     1018.0       24.3       22.1        0.0        0.0        0.0       0.00        0.0       0.00       0.14        0.0
2:24               13        0.0         51       22.0      160.8       22.0       22.5       11.4     1018.0       24.3       22.0        0.0        0.0        0.0       0.00        0.0       0.00       0.14        0.0
2:26               13        0.0         51       22.0      160.8       22.0       22.5       11.4     1018.0       24.3       22.0        0.0        0.0        0.0       0.00        0.0       0.00       0.14        0.0
2:28               13        0.0         51       21.9      160.8       21.9       22.4       11.4     1017.9       24.3       21.9        0.0        0.0        0.0       0.00        0.0       0.00       0.14        0.0
2:30               13        0.0         51       21.9      160.8       21.9       22.4       11.3     1018.0       24.3       21.9        0.0        0.0        0.0       0.00        0.0       0.00       0.14        0.0
2:32               13        0.0         51       21.9      160.8       21.9       22.4       11.3     1018.0       24.3       21.9        0.0        0.0        0.0       0.00        0.0       0.00       0.14        0.0
2:34               13        0.0         51       21.8      160.8       21.8       22.3       11.3     1018.0       24.3       21.8        0.0        0.0        0.0       0.00        0.0       0.00       0.14        0.0
2:35               13        0.0         51       21.8      160.8       21.8       22.3       11.3     1018.0       24.3       21.8        0.0        0.0        0.0       0.00        0.0       0.00       0.14        0.0
2:38               13        0.0         51       21.8      160.8       21.8       22.3       11.3     1017.9       24.3       21.8        0.0        0.0        0.0       0.00        0.0       0.00       0.14        0.0
2:39               13        0.0         52       21.8      160.8       21.8       22.3       11.5     1018.0       24.3       21.8        0.0        0.0        0.0       0.00        0.0       0.00       0.14        0.0
2:42               13        0.0         52       21.8      160.8       21.8       22.3       11.5     1017.9       24.3       21.8        0.0        0.0        0.0       0.00        0.0       0.00       0.14        0.0
2:43               13        0.0         52       21.8      160.8       21.8       22.3       11.5     1018.0       24.3       21.8        0.0        0.0        0.0       0.00        0.0       0.00       0.14        0.0
2:45               13        0.0         52       21.8      160.8       21.8       22.3       11.5     1017.9       24.3       21.8        0.0        0.0        0.0       0.00        0.0       0.00       0.14        0.0
2:48               13        0.0         52       21.7      160.8       21.7       22.3       11.4     1018.0       24.3       21.7        0.0        0.0        0.0       0.00        0.0       0.00       0.14        0.0
2:50               13        0.0         52       21.7      160.8       21.7       22.3       11.4     1017.9       24.3       21.7        0.0        0.0        0.0       0.00        0.0       0.00       0.14        0.0
2:52               13        0.0         52       21.7      160.8       21.7       22.3       11.4     1018.0       24.3       21.7        0.0        0.0        0.0       0.00        0.0       0.00       0.14        0.0
2:54               13        0.0         52       21.7      160.8       21.7       22.2       11.4     1018.0       24.3       21.7        0.0        0.0        0.0       0.00        0.0       0.00       0.14        0.0
2:56               13        0.0         52       21.7      160.8       21.7       22.2       11.4     1017.9       24.3       21.7        0.0        0.0        0.0       0.00        0.0       0.00       0.14        0.0
2:58               13        0.0         52       21.6      160.8       21.6       22.2       11.3     1017.9       24.3       21.6        0.0        0.0        0.0       0.00        0.0       0.00       0.14        0.0
3:00               13        0.0         52       21.6      160.8       21.6       22.2       11.3     1017.9       24.3       21.6        0.0        0.0        0.0       0.00        0.0       0.00       0.14        0.0
3:02               13        0.0         52       21.6      160.8       21.6       22.1       11.3     1017.9       24.3       21.6        0.0        0.0        0.0       0.00        0.0       0.00       0.14        0.0
3:04               13        0.0         53       21.6      160.8       21.6       22.2       11.6     1017.9       24.3       21.6        0.0        0.0        0.0       0.00        0.0       0.00       0.14        0.0
3:05               13        0.0         53       21.5      160.8       21.5       22.1       11.5     1017.9       24.3       21.5        0.0        0.0        0.0       0.00        0.0       0.00       0.14        0.0
3:08               13        0.0         53       21.5      160.8       21.5       22.1       11.5     1017.8       24.3       21.5        0.0        0.0        0.0       0.00        0.0       0.00       0.14        0.0
3:10               13        0.0         53       21.4      160.8       21.4       22.1       11.5     1017.8       24.3       21.4        0.0        0.0        0.0       0.00        0.0       0.00       0.14        0.0
3:11               13        0.0         53       21.4      160.8       21.4       22.1       11.5     1017.9       24.3       21.4        0.0        0.0        0.0       0.00        0.0       0.00       0.14        0.0
3:14               13        0.0         53       21.4      160.8       21.4       22.0       11.4     1017.9       24.3       21.4        0.0        0.0        0.0       0.00        0.0       0.00       0.14        0.0
3:16               13        0.0         53       21.4      160.8       21.4       22.0       11.4     1017.9       24.3       21.4        0.0        0.0        0.0       0.00        0.0       0.00       0.14        0.0
3:18               13        0.0         53       21.4      160.8       21.4       22.0       11.4     1017.9       24.3       21.4        0.0        0.0        0.0       0.00        0.0       0.00       0.14        0.0
3:20               13        0.0         53       21.3      160.8       21.3       21.9       11.4     1017.8       24.3       21.3        0.0        0.0        0.0       0.00        0.0       0.00       0.14        0.0
3:22               13        0.0         53       21.3      160.8       21.3       21.9       11.4     1017.9       24.3       21.3        0.0        0.0        0.0       0.00        0.0       0.00       0.14        0.0
3:24               13        0.0         53       21.3      160.8       21.3       21.9       11.4     1017.9       24.3       21.3        0.0        0.0        0.0       0.00        0.0       0.00       0.14        0.0
3:25               13        0.0         53       21.3      160.8       21.3       21.9       11.3     1017.9       24.3       21.3        0.0        0.0        0.0       0.00        0.0       0.00       0.14        0.0
3:28               13        0.0         53       21.3      160.8       21.3       21.9       11.3     1017.9       24.3       21.3        0.0        0.0        0.0       0.00        0.0       0.00       0.14        0.0
3:30               13        0.0         53       21.3      160.8       21.3       21.9       11.3     1017.9       24.3       21.2        0.0        0.0        0.0       0.00        0.0       0.00       0.14        0.0
3:32               13        0.0         53       21.2      160.8       21.2       21.8       11.3     1017.8       24.3       21.2        0.0        0.0        0.0       0.00        0.0       0.00       0.14        0.0
3:34               13        0.0         53       21.2      160.8       21.2       21.8       11.3     1017.8       24.3       21.2        0.0        0.0        0.0       0.00        0.0       0.00       0.14        0.0
3:36               13        0.0         53       21.2      160.8       21.2       21.8       11.3     1017.8       24.3       21.2        0.0        0.0        0.0       0.00        0.0       0.00       0.14        0.0
3:38               13        0.0         53       21.2      160.8       21.2       21.8       11.3     1017.9       24.3       21.2        0.0        0.0        0.0       0.00        0.0       0.00       0.14        0.0
3:39               13        0.0         53       21.2      160.8       21.2       21.8       11.3     1017.9       24.3       21.2        0.0        0.0        0.0       0.00        0.0       0.00       0.14        0.0
3:42               13        0.0         53       21.2      160.8       21.2       21.8       11.3     1017.9       24.3       21.2        0.0        0.0        0.0       0.00        0.0       0.00       0.14        0.0
3:43               13        0.0         54       21.2      160.8       21.2       21.8       11.5     1017.9       24.3       21.2        0.0        0.0        0.0       0.00        0.0       0.00       0.14        0.0
3:46               13        0.0         54       21.2      160.8       21.2       21.8       11.5     1018.0       24.3       21.2        0.0        0.0        0.0       0.00        0.0       0.00       0.14        0.0
3:48               13        0.0         54       21.1      160.8       21.1       21.8       11.4     1017.9       24.3       21.1        0.0        0.0        0.0       0.00        0.0       0.00       0.14        0.0
3:50               13        0.0         54       21.1      160.8       21.1       21.8       11.4     1017.9       24.3       21.1        0.0        0.0        0.0       0.00        0.0       0.00       0.14        0.0
3:52               13        0.0         54       21.1      160.8       21.1       21.8       11.4     1017.8       24.3       21.1        0.0        0.0        0.0       0.00        0.0       0.00       0.14        0.0
3:54               19        0.0         54       21.1      160.8       21.1       21.7       11.4     1017.9       24.3       21.1        0.0        0.0        0.0       0.00        0.0       0.00       0.14        0.0
3:56               19        0.0         54       21.1      160.8       21.1       21.7       11.4     1017.9       24.3       21.1        0.0        0.0        0.0       0.00        0.0       0.00       0.14        0.0
3:58               22        0.0         54       21.1      160.8       21.1       21.7       11.4     1017.9       24.3       21.1        0.0        0.0        0.0       0.00        0.0       0.00       0.14        0.0
4:00               22        0.0         54       21.1      160.8       21.1       21.7       11.4     1017.9       24.3       21.1        0.0        0.0        0.0       0.00        0.0       0.00       0.14        0.0
4:02               22        0.0         54       21.1      160.8       21.1       21.7       11.4     1017.9       24.3       21.1        0.0        0.0        0.0       0.00        0.0       0.00       0.14        0.0
4:04               22        0.0         54       21.1      160.8       21.1       21.7       11.4     1017.9       24.3       21.1        0.0        0.0        0.0       0.00        0.0       0.00       0.14        0.0
4:06               22        0.0         54       21.0      160.8       21.0       21.7       11.3     1017.9       24.3       21.0        0.0        0.0        0.0       0.00        0.0       0.00       0.14        0.0
4:07               22        0.0         54       21.0      160.8       21.0       21.7       11.3     1017.9       24.3       21.0        0.0        0.0        0.0       0.00        0.0       0.00       0.14        0.0
4:09               22        0.0         54       20.9      160.8       20.9       21.6       11.3     1018.0       24.3       20.9        0.0        0.0        0.0       0.00        0.0       0.00       0.14        0.0
4:12               22        0.0         54       20.9      160.8       20.9       21.6       11.3     1018.0       24.3       20.9        0.0        0.0        0.0       0.00        0.0       0.00       0.14        0.0
4:14               22        0.0         54       20.9      160.8       20.9       21.6       11.3     1018.1       24.3       20.9        0.0        0.0        0.0       0.00        0.0       0.00       0.14        0.0
4:16               22        0.0         54       20.9      160.8       20.9       21.5       11.2     1018.0       24.3       20.9        0.0        0.0        0.0       0.00        0.0       0.00       0.14        0.0
4:18               22        0.0         54       20.9      160.8       20.9       21.5       11.2     1018.0       24.3       20.9        0.0        0.0        0.0       0.00        0.0       0.00       0.14        0.0
4:20               22        0.0         54       20.8      160.8       20.8       21.5       11.2     1018.1       24.3       20.8        0.0        0.0        0.0       0.00        0.0       0.00       0.14        0.0
4:22               22        0.0         54       20.8      160.8       20.8       21.5       11.2     1018.1       24.3       20.8        0.0        0.0        0.0       0.00        0.0       0.00       0.14        0.0
4:24               22        0.0         54       20.8      160.8       20.8       21.5       11.2     1018.0       24.3       20.8        0.0        0.0        0.0       0.00        0.0       0.00       0.14        0.0
4:25               22        0.0         54       20.8      160.8       20.8       21.4       11.1     1018.0       24.3       20.8        0.0        0.0        0.0       0.00        0.0       0.00       0.14        0.0
4:28               22        0.0         55       20.8      160.8       20.8       21.5       11.4     1018.0       24.3       20.8        0.0        0.0        0.0       0.00        0.0       0.00       0.14        0.0
4:30               22        0.0         55       20.8      160.8       20.8       21.5       11.4     1018.0       24.3       20.8        0.0        0.0        0.0       0.00        0.0       0.00       0.14        0.0
4:32               22        0.0         55       20.8      160.8       20.8       21.5       11.4     1018.0       24.3       20.8        0.0        0.0        0.0       0.00        0.0       0.00       0.14        0.0
4:33               22        0.0         55       20.7      160.8       20.7       21.4       11.4     1017.9       24.3       20.7        0.0        0.0        0.0       0.00        0.0       0.00       0.14        0.0
4:36               22        0.0         55       20.7      160.8       20.7       21.4       11.4     1018.0       24.3       20.7        0.0        0.0        0.0       0.00        0.0       0.00       0.14        0.0
4:38               22        0.0         55       20.7      160.8       20.7       21.4       11.4     1017.9       24.3       20.7        0.0        0.0        0.0       0.00        0.0       0.00       0.14        0.0
4:40               22        0.0         54       20.7      160.8       20.7       21.4       11.1     1017.9       24.3       20.7        0.0        0.0        0.0       0.00        0.0       0.00       0.14        0.0
4:42               22        0.0         54       20.7      160.8       20.7       21.4       11.1     1018.0       24.3       20.7        0.0        0.0        0.0       0.00        0.0       0.00       0.14        0.0
4:43               22        0.0         54       20.8      160.8       20.8       21.4       11.1     1018.0       24.3       20.7        0.0        0.0        0.0       0.00        0.0       0.00       0.14        0.0
4:46               22        0.0         54       20.8      160.8       20.8       21.4       11.1     1018.0       24.3       20.7        0.0        0.0        0.0       0.00        0.0       0.00       0.14        0.0
4:48               22        0.0         54       20.8      160.8       20.8       21.5       11.2     1018.0       24.3       20.7        0.0        0.0        0.0       0.00        0.0       0.00       0.14        0.0
4:50               22        0.0         54       20.9      160.8       20.9       21.5       11.2     1018.1       24.3       20.7        0.0        0.0        0.0       0.00        0.0       0.00       0.14        0.0
4:52               22        0.0         54       20.9      160.8       20.9       21.6       11.3     1018.1       24.3       20.7        0.0        0.0        0.0       0.00        0.0       0.00       0.14        0.0
4:53               22        0.0         53       20.9      160.8       20.9       21.6       11.0     1018.0       24.3       20.7        0.0        0.0        0.0       0.00        0.0       0.00       0.14        0.0
4:56               22        0.0         53       21.0      160.8       21.0       21.6       11.1     1018.0       24.3       20.7        0.0        0.0        0.0       0.00        0.0       0.00       0.14        0.0
4:58               22        0.0         53       21.1      160.8       21.1       21.7       11.1     1018.1       24.3       20.7        0.0        0.0        0.0       0.00        0.0       0.00       0.14        0.0
5:00               23        0.0         53       21.1      160.8       21.1       21.7       11.1     1018.1       24.3       20.7        0.0        0.0        0.0       0.00        0.0       0.00       0.14        0.0
5:02               22        0.0         53       21.1      160.8       21.1       21.7       11.1     1018.0       24.3       20.7        0.0        0.0        0.0       0.00        0.0       0.00       0.14        0.0
5:03               22        0.0         53       21.1      160.8       21.1       21.7       11.1     1018.1       24.3       20.7        0.0        0.0        0.0       0.00        0.0       0.00       0.14        0.0
5:05               23        0.0         53       21.1      160.8       21.1       21.7       11.1     1018.1       24.3       20.7        0.0        0.0        0.0       0.00        0.0       0.00       0.14        0.0
5:08               22        0.0         53       21.1      160.8       21.1       21.7       11.1     1018.1       24.3       20.7        0.0        0.0        0.0       0.00        0.0       0.00       0.14        0.0
5:09               22        0.0         53       21.1      160.8       21.1       21.7       11.1     1018.1       24.3       20.7        0.0        0.0        0.0       0.00        0.0       0.00       0.14        0.0
5:12               22        0.0         53       21.1      160.8       21.1       21.7       11.1     1018.1       24.3       20.7        0.0        0.0        0.0       0.00        0.0       0.00       0.14        0.0
5:14               22        0.0         53       21.1      160.8       21.1       21.7       11.1     1018.1       24.3       20.7        0.0        0.0        0.0       0.00        0.0       0.00       0.14        0.0
5:16               22        0.0         53       21.1      160.8       21.1       21.7       11.1     1018.1       24.3       20.7        0.0        0.0        0.0       0.00        0.0       0.00       0.14        0.0
5:18               22        0.0         53       21.0      160.8       21.0       21.6       11.1     1018.1       24.3       20.7        0.0        0.0        0.0       0.00        0.0       0.00       0.14        0.0
5:20               22        0.0         54       21.0      160.8       21.0       21.7       11.3     1018.1       24.3       20.7        0.0        0.0        0.0       0.00        0.0       0.00       0.14        0.0
5:21               22        0.0         54       21.0      160.8       21.0       21.7       11.3     1018.1       24.3       20.7        0.0        0.0        0.0       0.00        0.0       0.00       0.14        0.0
5:24               23        0.0         54       20.9      160.8       20.9       21.6       11.3     1018.2       24.3       20.7        0.0        0.0        0.0       0.00        0.0       0.00       0.14        0.0
5:26               23        0.0         54       20.9      160.8       20.9       21.6       11.3     1018.2       24.3       20.7        0.0        0.0        0.0       0.00        0.0       0.00       0.14        0.0
5:28               22        0.0         54       20.9      160.8       20.9       21.5       11.2     1018.1       24.3       20.7        0.0        0.0        0.0       0.00        0.0       0.00       0.14        0.0
5:30               22        0.0         54       20.9      160.8       20.9       21.5       11.2     1018.2       24.3       20.7        0.0        0.0        0.0       0.00        0.0       0.00       0.14        0.0
5:31               22        0.0         54       20.9      160.8       20.9       21.5       11.2     1018.1       24.3       20.7        0.0        0.0        0.0       0.00        0.0       0.00       0.14        0.0
5:34               22        0.0         54       20.8      160.8       20.8       21.5       11.2     1018.2       24.3       20.7        0.0        0.0        0.0       0.00        0.0       0.00       0.14        0.0
5:36               22        0.0         54       20.8      160.8       20.8       21.5       11.2     1018.2       24.3       20.7        0.0        0.0        0.0       0.00        0.0       0.00       0.14        0.0
5:37               22        0.0         54       20.9      160.8       20.9       21.5       11.2     1018.2       24.3       20.7        0.0        0.0        0.0       0.00        0.0       0.00       0.14        0.0
5:40               22        0.0         55       20.9      160.8       20.9       21.6       11.5     1018.2       24.3       20.7        0.0        0.0        0.0       0.00        0.0       0.00       0.14        0.0
5:42               22        0.0         55       20.9      160.8       20.9       21.6       11.5     1018.2       24.3       20.7        0.0        0.0        0.0       0.00        0.0       0.00       0.14        0.0
5:44               22        0.0         55       20.8      160.8       20.8       21.5       11.5     1018.3       24.3       20.7        0.0        0.0        0.0       0.00        0.0       0.00       0.14        0.0
5:46               22        0.0         55       20.8      160.8       20.8       21.5       11.5     1018.2       24.3       20.7        0.0        0.0        0.0       0.00        0.0       0.00       0.14        0.0
5:48               22        0.0         55       20.8      160.8       20.8       21.5       11.5     1018.2       24.3       20.7        0.0        0.0        0.0       0.00        0.0       0.00       0.14        0.0
5:50               23        0.0         55       20.8      160.8       20.8       21.5       11.5     1018.3       24.3       20.7        0.0        0.0        0.0       0.00        0.0       0.00       0.14        0.0
5:52               22        0.0         56       20.8      160.8       20.8       21.6       11.7     1018.2       24.3       20.7        0.0        0.0        0.0       0.00        0.0       0.00       0.14        0.0
5:53               22        0.0         56       20.8      160.8       20.8       21.6       11.7     1018.3       24.3       20.7        0.0        0.0        0.0       0.00        0.0       0.00       0.14        0.0
5:55               22        0.0         56       20.8      160.8       20.8       21.6       11.7     1018.3       24.3       20.7        0.0        0.0        0.0       0.00        0.0       0.00       0.14        0.0
5:58               22        0.0         56       20.8      160.8       20.8       21.6       11.7     1018.3       24.3       20.7        0.0        0.0        0.0       0.00        0.0       0.00       0.14        0.0
6:00               22        0.0         56       20.8      160.8       20.8       21.6       11.7     1018.3       24.3       20.7        0.0        0.0        0.0       0.00        0.0       0.00       0.14        0.0
6:02               22        0.0         56       20.8      160.8       20.8       21.6       11.7     1018.4       24.3       20.7        0.0        0.0        0.0       0.00        0.0       0.00       0.14        0.0
6:04               22        0.0         56       20.8      160.8       20.8       21.6       11.7     1018.3       24.3       20.7        0.0        0.0        0.0       0.00        0.0       0.00       0.14        0.0
6:06               22        0.0         56       20.9      160.8       20.9       21.7       11.8     1018.3       24.3       20.7        0.0        0.0        0.0       0.00        0.0       0.00       0.14        0.0
6:07               22        0.0         56       20.9      160.8       20.9       21.7       11.8     1018.3       24.3       20.7        0.0        0.0        0.0       0.00        0.0       0.00       0.14        0.0
6:10               24        0.0         56       20.9      160.8       20.9       21.7       11.8     1018.2       24.3       20.7        0.0        0.0        0.0       0.00        0.0       0.00       0.14        0.0
6:12               19        0.0         56       20.9      160.8       20.9       21.7       11.8     1018.3       24.3       20.7        0.0        0.0        0.0       0.00        0.0       0.00       0.14        0.0
6:14               30        0.0         56       20.9      160.8       20.9       21.7       11.8     1018.3       24.3       20.7        0.0        0.0        0.0       0.00        0.0       0.00       0.14        0.0
6:16               26        0.0         56       20.9      160.8       20.9       21.7       11.8     1018.3       24.3       20.7        0.0        0.0        0.0       0.00        0.0       0.00       0.14        0.0
6:18               25        0.0         56       20.8      160.8       20.8       21.6       11.7     1018.3       24.3       20.7        0.0        0.0        0.0       0.00        0.0       0.00       0.14        0.0
6:20               17        0.0         57       20.9      160.8       20.9       21.7       12.1     1018.2       24.3       20.7        0.0        0.0        0.0       0.00        0.0       0.00       0.14        0.0
6:22               17        0.0         57       20.8      160.8       20.8       21.7       12.0     1018.3       24.3       20.7        0.0        0.0        0.0       0.00        0.0       0.00       0.14        0.0
6:24               17        0.0         57       20.8      160.8       20.8       21.7       12.0     1018.3       24.3       20.7        0.0        0.0        0.0       0.00        0.0       0.00       0.14        0.0
6:26               17        0.0         57       20.8      160.8       20.8       21.6       12.0     1018.3       24.3       20.7        0.0        0.0        0.0       0.00        0.0       0.00       0.14        0.0
6:28               15        0.0         57       20.8      160.8       20.8       21.6       12.0     1018.3       24.3       20.7        0.0        0.0        0.0       0.00        0.0       0.00       0.14        0.0
6:30               16        0.0         57       20.7      160.8       20.7       21.6       11.9     1018.3       24.3       20.7        0.0        0.0        0.0       0.00        0.0       0.00       0.14        0.0
6:32               21        0.0         58       20.7      160.8       20.7       21.6       12.1     1018.3       24.3       20.7        0.0        0.0        0.0       0.00        0.0       0.00       0.14        0.0
6:33               19        0.0         58       20.6      160.8       20.6       21.5       12.1     1018.4       24.3       20.6        0.0        0.0        0.0       0.00        0.0       0.00       0.14        0.0
6:36               20        0.0         58       20.6      160.8       20.6       21.5       12.1     1018.3       24.3       20.6        0.0        0.0        0.0       0.00        0.0       0.00       0.14        0.0
6:38               20        0.0         58       20.6      160.8       20.6       21.5       12.1     1018.3       24.3       20.6        0.0        0.0        0.0       0.00        0.0       0.00       0.14        0.0
6:40               24        0.0         58       20.6      160.8       20.6       21.4       12.0     1018.3       24.3       20.6        0.0        0.0        0.0       0.00        0.0       0.00       0.14        0.0
6:42               23        0.0         58       20.6      160.8       20.6       21.4       12.0     1018.3       24.3       20.6        0.0        0.0        0.0       0.00        0.0       0.00       0.14        0.0
6:44               23        0.0         58       20.5      160.8       20.5       21.4       12.0     1018.4       24.3       20.5        0.0        0.0        0.0       0.00        0.0       0.00       0.14        0.0
6:45               23        0.0         58       20.5      160.8       20.5       21.4       12.0     1018.4       24.3       20.5        0.0        0.0        0.0       0.00        0.0       0.00       0.14        0.0
6:48               19        0.0         58       20.5      160.8       20.5       21.4       12.0     1018.4       24.3       20.5        0.0        0.0        0.0       0.00        0.0       0.00       0.14        0.0
6:49                9        0.0         59       20.5      160.8       20.5       21.4       12.2     1018.5       24.3       20.5        0.0        0.0        0.0       0.00        0.0       0.00       0.14        0.0
6:52                5        0.0         58       20.5      160.8       20.5       21.4       12.0     1018.6       24.3       20.5        0.0        0.0        0.0       0.00        0.0       0.00       0.14        0.0
6:54                5        0.0         59       20.6      160.8       20.6       21.5       12.3     1018.5       24.3       20.5        0.0        0.0        0.0       0.00        0.0       0.00       0.14        0.0
6:56                5        0.0         58       20.6      160.8       20.6       21.4       12.0     1018.5       24.3       20.5        0.0        0.0        0.0       0.00        0.0       0.00       0.14        0.0
6:58                5        0.0         59       20.6      160.8       20.6       21.5       12.3     1018.5       24.3       20.5        0.0        0.0        0.0       0.00        0.0       0.00       0.14        0.0
7:00                5        0.0         59       20.6      160.8       20.6       21.5       12.3     1018.5       24.3       20.5        0.0        0.0        0.0       0.00        0.0       0.00       0.14        0.0
7:01               24        0.0         59       20.6      160.8       20.6       21.5       12.3     1018.6       24.3       20.5        0.0        0.0        0.0       0.00        0.0       0.00       0.14        0.0
7:03               24        0.0         59       20.6      160.8       20.6       21.6       12.3     1018.6       24.3       20.5        0.0        0.0        0.0       0.00        0.0       0.00       0.14        0.0
7:06               24        0.0         59       20.6      160.8       20.6       21.6       12.3     1018.6       24.3       20.5        0.0        0.0        0.0       0.00        0.0       0.00       0.14        0.0
7:07               24        0.0         59       20.6      160.8       20.6       21.6       12.3     1018.7       24.3       20.5        0.0        0.0        0.0       0.00        0.0       0.00       0.14        0.0
7:10               28        0.0         59       20.7      160.8       20.7       21.6       12.4     1018.6       24.3       20.5        0.0        0.0        0.0       0.00        0.0       0.00       0.14        0.0
7:12               28        0.0         59       20.7      160.8       20.7       21.7       12.4     1018.7       24.3       20.5        0.0        0.0        0.0       0.00        0.0       0.00       0.14        0.0
7:13               28        0.0         58       20.8      160.8       20.8       21.7       12.2     1018.7       24.3       20.5        0.0        0.0        0.0       0.00        0.0       0.00       0.14        0.0
7:16               29        0.0         58       20.8      160.8       20.8       21.7       12.3     1018.8       24.3       20.5        0.0        0.0        0.0       0.00        0.0       0.00       0.14        0.0
7:18               26        0.0         58       20.9      160.8       20.9       21.8       12.3     1018.7       24.3       20.5        0.0        0.0        0.0       0.00        0.0       0.00       0.14        0.0
7:19               26        0.0         58       20.9      160.8       20.9       21.8       12.4     1018.8       24.3       20.5        0.0        0.0        0.0       0.00        0.0       0.00       0.14        0.0
7:21               22        0.0         58       21.0      160.8       21.0       21.9       12.4     1018.8       24.3       20.5        0.0        0.0        0.0       0.00        0.0       0.00       0.14        0.0
7:23              355        0.0         58       21.0      160.8       21.0       21.9       12.4     1018.7       24.3       20.5        0.0        0.0        0.0       0.00        0.0       0.00       0.14        0.0
7:26                9        0.0         58       21.1      160.8       21.1       21.9       12.5     1018.8       24.3       20.5        0.0        0.0        0.0       0.00        0.0       0.00       0.14        0.0
7:28               13        0.0         58       21.1      160.8       21.1       21.9       12.5     1018.7       24.3       20.5        0.0        0.0        0.0       0.00        0.0       0.00       0.14        0.0
7:29              351        0.0         58       21.0      160.8       21.0       21.9       12.4     1018.8       24.3       20.5        0.0        0.0        0.0       0.00        0.0       0.00       0.14        0.0
7:32               16        0.0         58       21.0      160.8       21.0       21.9       12.4     1018.8       24.3       20.5        0.0        0.0        0.0       0.00        0.0       0.00       0.14        0.0
7:34               10        0.0         58       21.0      160.8       21.0       21.9       12.4     1018.9       24.3       20.5        0.0        0.0        0.0       0.00        0.0       0.00       0.14        0.0
7:35              360        0.0         58       21.0      160.8       21.0       21.9       12.4     1018.8       24.3       20.5        0.0        0.0        0.0       0.00        0.0       0.00       0.14        0.0
7:38               50        0.0         58       21.1      160.8       21.1       21.9       12.5     1018.9       24.3       20.5        0.0        0.0        0.0       0.00        0.0       0.00       0.14        0.0
7:40              351        0.0         58       21.1      160.8       21.1       21.9       12.5     1019.0       24.3       20.5        0.0        0.0        0.0       0.00        0.0       0.00       0.14        0.0
7:41               24        0.0         58       21.1      160.8       21.1       21.9       12.5     1018.8       24.3       20.5        0.0        0.0        0.0       0.00        0.0       0.00       0.14        0.0
7:44               36        0.0         58       21.1      160.8       21.1       22.0       12.5     1019.0       24.3       20.5        0.0        0.0        0.0       0.00        0.0       0.00       0.14        0.0
7:46               19        0.0         58       21.1      160.8       21.1       22.0       12.5     1018.9       24.3       20.5        0.0        0.0        0.0       0.00        0.0       0.00       0.14        0.0
7:47               38        0.0         58       21.2      160.8       21.2       22.1       12.6     1019.0       24.3       20.5        0.0        0.0        0.0       0.00        0.0       0.00       0.14        0.0
7:50               25        0.0         58       21.2      160.8       21.2       22.1       12.6     1018.9       24.3       20.5        0.0        0.0        0.0       0.00        0.0       0.00       0.14        0.0
7:52               20        0.0         58       21.2      160.8       21.2       22.1       12.6     1019.0       24.3       20.5        0.0        0.0        0.0       0.00        0.0       0.00       0.14        0.0
7:53               29        0.0         58       21.2      160.8       21.2       22.1       12.6     1018.9       24.3       20.5        0.0        0.0        0.0       0.00        0.0       0.00       0.14        0.0
7:56               24        0.0         58       21.3      160.8       21.3       22.2       12.7     1019.0       24.3       20.5        0.0        0.0        0.0       0.00        0.0       0.00       0.14        0.0
7:58               11        0.0         58       21.3      160.8       21.3       22.2       12.7     1019.0       24.3       20.5        0.0        0.0        0.0       0.00        0.0       0.00       0.14        0.0
8:00                5        0.0         58       21.4      160.8       21.4       22.3       12.8     1019.0       24.3       20.5        0.0        0.0        0.0       0.00        0.0       0.00       0.14        0.0
8:02               34        0.0         57       21.4      160.8       21.4       22.2       12.5     1019.1       24.3       20.5        0.0        0.0        0.0       0.00        0.0       0.00       0.14        0.0
8:04               26        0.0         57       21.4      160.8       21.4       22.3       12.6     1019.0       24.3       20.5        0.0        0.0        0.0       0.00        0.0       0.00       0.14        0.0
8:05               37        0.0         57       21.5      160.8       21.5       22.3       12.6     1019.1       24.3       20.5        0.0        0.0        0.0       0.00        0.0       0.00       0.14        0.0
8:08              347        0.0         57       21.6      160.8       21.6       22.4       12.7     1019.1       24.3       20.5        0.0        0.0        0.0       0.00        0.0       0.00       0.14        0.0
8:10               23        0.0         57       21.6      160.8       21.6       22.4       12.7     1019.1       24.3       20.5        0.0        0.0        0.0       0.00        0.0       0.00       0.14        0.0
8:12               40        0.0         57       21.7      160.8       21.7       22.5       12.8     1019.1       24.3       20.5        0.0        0.0        0.0       0.00        0.0       0.00       0.14        0.0
8:14              360        0.0         57       21.7      160.8       21.7       22.6       12.8     1019.2       24.3       20.5        0.0        0.0        0.0       0.00        0.0       0.00       0.14        0.0
8:16               42        0.0         57       21.8      160.8       21.8       22.6       12.9     1019.2       24.3       20.5        0.0        0.0        0.0       0.00        0.0       0.00       0.14        0.0
8:18               10        0.0         56       21.9      160.8       21.9       22.7       12.7     1019.1       24.3       20.5        0.0        0.0        0.0       0.00        0.0       0.00       0.14        0.0
8:20               43        0.0         56       21.9      160.8       21.9       22.7       12.8     1019.1       24.3       20.5        0.0        0.0        0.0       0.00        0.0       0.00       0.14        0.0
8:22                5        0.0         56       22.0      160.8       22.0       22.8       12.8     1019.2       24.3       20.5        0.0        0.0        0.0       0.00        0.0       0.00       0.14        0.0
8:24                5        0.0         56       22.1      160.8       22.1       22.9       12.9     1019.2       24.3       20.5        0.0        0.0        0.0       0.00        0.0       0.00       0.14        0.0
8:26                5        0.0         55       22.2      160.8       22.2       22.9       12.7     1019.2       24.3       20.5        0.0        0.0        0.0       0.00        0.0       0.00       0.14        0.0
8:28               22        0.0         55       22.2      160.8       22.2       22.9       12.8     1019.2       24.3       20.5        0.0        0.0        0.0       0.00        0.0       0.00       0.14        0.0
8:30               45        0.0         56       22.3      160.8       22.3       23.1       13.1     1019.2       24.3       20.5        0.0        0.0        0.0       0.00        0.0       0.00       0.14        0.0
8:32               14        0.0         55       22.4      160.8       22.4       23.1       12.9     1019.2       24.3       20.5        0.0        0.0        0.0       0.00        0.0       0.00       0.14        0.0
8:34               14        0.0         55       22.4      160.8       22.4       23.2       13.0     1019.2       24.3       20.5        0.0        0.0        0.0       0.00        0.0       0.00       0.14        0.0
8:36                5        0.0         55       22.6      160.8       22.6       23.3       13.1     1019.2       24.3       20.5        0.0        0.0        0.0       0.00        0.0       0.00       0.14        0.0
8:38               29        0.0         55       22.6      160.8       22.6       23.3       13.1     1019.2       24.3       20.5        0.0        0.0        0.0       0.00        0.0       0.00       0.14        0.0
8:40              355        0.0         54       22.7      160.8       22.7       23.3       12.9     1019.2       24.3       20.5        0.0        0.0        0.0       0.00        0.0       0.00       0.14        0.0
8:41              360        0.0         55       22.7      160.8       22.7       23.4       13.2     1019.2       24.3       20.5        0.0        0.0        0.0       0.00        0.0       0.00       0.14        0.0
8:43                5        0.0         54       22.8      160.8       22.8       23.5       13.0     1019.2       24.3       20.5        0.0        0.0        0.0       0.00        0.0       0.00       0.14        0.0
8:45               32        0.0         54       22.9      160.8       22.9       23.5       13.1     1019.2       24.3       20.5        0.0        0.0        0.0       0.00        0.0       0.00       0.15        0.0
8:48               50        0.0         54       23.0      160.8       23.0       23.7       13.2     1019.2       24.3       20.5        0.0        0.0        0.0       0.00        0.0       0.00       0.15        0.0
8:49               15        0.0         54       23.1      160.8       23.1       23.7       13.3     1019.2       24.3       20.5        0.0        0.0        0.0       0.00        0.0       0.00       0.15        0.0
8:52               22        0.0         54       23.2      160.8       23.2       23.8       13.4     1019.2       24.3       20.5        0.0        0.0        0.0       0.00        0.0       0.00       0.15        0.0
8:54               16        0.0         54       23.3      160.8       23.3       23.9       13.5     1019.3       24.3       20.5        0.0        0.0        0.0       0.00        0.0       0.00       0.15        0.0
8:56               32        0.0         54       23.3      160.8       23.3       24.0       13.5     1019.3       24.3       20.5        0.0        0.0        0.0       0.00        0.0       0.00       0.15        0.0
8:58               30        0.0         53       23.4      160.8       23.4       24.1       13.3     1019.3       24.3       20.5        0.0        0.0        0.0       0.00        0.0       0.00       0.15        0.0
9:00              360        0.0         53       23.5      160.8       23.5       24.1       13.4     1019.3       24.3       20.5        0.0        0.0        0.0       0.00        0.0       0.00       0.15        0.0
9:01              360        0.0         54       23.6      160.8       23.6       24.3       13.8     1019.3       24.3       20.5        0.0        0.0        0.0       0.00        0.0       0.00       0.17        0.0
9:04               26        0.0         53       23.7      160.8       23.7       24.3       13.6     1019.4       24.3       20.5        0.0        0.0        0.0       0.00        0.0       0.00       0.17        0.0
9:06               17        0.0         53       23.8      160.8       23.8       24.4       13.7     1019.4       24.3       20.5        0.0        0.0        0.0       0.00        0.0       0.00       0.17        0.0
9:08               17        0.0         53       23.9      160.8       23.9       24.5       13.7     1019.5       24.3       20.5        0.0        0.0        0.0       0.00        0.0       0.00       0.17        0.0
9:10               35        0.0         53       23.9      160.8       23.9       24.6       13.8     1019.4       24.3       20.5        0.0        0.0        0.0       0.00        0.0       0.00       0.17        0.0
9:12               34        0.0         52       24.1      160.8       24.1       24.6       13.6     1019.4       24.3       20.5        0.0        0.0        0.0       0.00        0.0       0.00       0.17        0.0
9:14               22        0.0         52       24.1      160.8       24.1       24.7       13.7     1019.6       24.3       20.5        0.0        0.0        0.0       0.00        0.0       0.00       0.17        0.0
9:16               38        0.0         52       24.2      160.8       24.2       24.8       13.8     1019.5       24.3       20.5        0.0        0.0        0.0       0.00        0.0       0.00       0.19        0.0
9:18               33        0.0         51       24.3      160.8       24.3       24.8       13.6     1019.5       24.3       20.5        0.0        0.0        0.0       0.00        0.0       0.00       0.19        0.0
9:20               33        0.0         52       24.4      160.8       24.4       24.9       13.9     1019.5       24.4       20.5        0.0        0.0        0.0       0.00        0.0       0.00       0.19        0.0
9:22               33        0.0         52       24.5      160.8       24.5       25.1       14.0     1019.5       24.5       20.5        0.0        0.0        0.0       0.00        0.0       0.00       0.19        0.0
9:24               35        0.0         51       24.6      160.8       24.6       25.1       13.8     1019.5       24.6       20.5        0.0        0.0        0.0       0.00        0.0       0.00       0.19        0.0
9:26                5        0.0         51       24.7      160.8       24.7       25.2       13.9     1019.5       24.7       20.5        0.0        0.0        0.0       0.00        0.0       0.00       0.19        0.0
9:28               19        0.0         50       24.8      160.8       24.8       25.3       13.7     1019.6       24.8       20.5        0.0        0.0        0.0       0.00        0.0       0.00       0.19        0.0
9:30               38        0.0         50       24.9      160.8       24.9       25.4       13.8     1019.5       24.9       20.5        0.0        0.0        0.0       0.00        0.0       0.00       0.19        0.0
9:32               34        0.0         49       25.1      160.8       25.1       25.5       13.7     1019.5       25.1       20.5        0.0        0.0        0.0       0.00        0.0       0.00       0.22        0.0
9:34               34        0.0         49       25.2      160.8       25.2       25.6       13.8     1019.5       25.2       20.5        0.0        0.0        0.0       0.00        0.0       0.00       0.22        0.0
9:36               42        0.0         48       25.4      160.8       25.4       25.7       13.6     1019.5       25.4       20.5        0.0        0.0        0.0       0.00        0.0       0.00       0.22        0.0
9:38               17        0.0         48       25.5      160.8       25.5       25.8       13.7     1019.5       25.5       20.5        0.0        0.0        0.0       0.00        0.0       0.00       0.22        0.0
9:40               17        0.0         47       25.7      160.8       25.7       26.0       13.5     1019.5       25.7       20.5        0.0        0.0        0.0       0.00        0.0       0.00       0.22        0.0
9:41               18        0.0         47       25.8      160.8       25.8       26.1       13.7     1019.5       25.8       20.5        0.0        0.0        0.0       0.00        0.0       0.00       0.22        0.0
9:43               19        0.0         46       25.9      160.8       25.9       26.2       13.4     1019.5       25.9       20.5        0.0        0.0        0.0       0.00        0.0       0.00       0.22        0.0
9:46               49        0.0         46       26.1      160.8       26.1       26.3       13.5     1019.4       26.1       20.5        0.0        0.0        0.0       0.00        0.0       0.00       0.26        0.0
9:48               38        0.0         45       26.3      160.8       26.3       26.5       13.4     1019.4       26.3       20.5        0.0        0.0        0.0       0.00        0.0       0.00       0.26        0.0
9:50               22        0.0         44       26.4      160.8       26.4       26.5       13.2     1019.4       26.4       20.5        0.0        0.0        0.0       0.00        0.0       0.00       0.26        0.0
9:52               26        0.0         44       26.5      160.8       26.5       26.6       13.3     1019.4       26.5       20.5        0.0        0.0        0.0       0.00        0.0       0.00       0.26        0.0
9:54               15        0.0         44       26.6      160.8       26.6       26.7       13.3     1019.3       26.6       20.5        0.0        0.0        0.0       0.00        0.0       0.00       0.26        0.0
9:55               19        0.0         44       26.6      160.8       26.6       26.8       13.4     1019.3       26.6       20.5        0.0        0.0        0.0       0.00        0.0       0.00       0.26        0.0
9:58               32        0.0         44       26.7      160.8       26.7       26.8       13.4     1019.4       26.7       20.5        0.0        0.0        0.0       0.00        0.0       0.00       0.26        0.0
10:00              32        0.0         43       26.7      160.8       26.7       26.8       13.1     1019.3       26.7       20.5        0.0        0.0        0.0       0.00        0.0       0.00       0.26        0.0
10:01              34        0.0         43       26.8      160.8       26.8       26.9       13.2     1019.4       26.8       20.5        0.0        0.0        0.0       0.00        0.0       0.00       0.31        0.0
10:03              38        0.0         44       26.9      160.8       26.9       27.0       13.7     1019.3       26.9       20.5        0.0        0.0        0.0       0.00        0.0       0.00       0.31        0.0
10:06              30        0.0         43       27.1      160.8       27.1       27.1       13.4     1019.3       27.1       20.5        0.0        0.0        0.0       0.00        0.0       0.00       0.31        0.0
10:07              30        0.0         43       27.2      160.8       27.2       27.1       13.5     1019.3       27.2       20.5        0.0        0.0        0.0       0.00        0.0       0.00       0.31        0.0
10:10              19        0.0         43       27.3      160.8       27.3       27.2       13.6     1019.3       27.3       20.5        0.0        0.0        0.0       0.00        0.0       0.00       0.31        0.0
10:11               5        0.0         43       27.4      160.8       27.4       27.3       13.7     1019.2       27.4       20.5        0.0        0.0        0.0       0.00        0.0       0.00       0.31        0.0
10:14              34        0.0         43       27.4      160.8       27.4       27.4       13.8     1019.3       27.4       20.5        0.0        0.0        0.0       0.00        0.0       0.00       0.31        0.0
10:16              19        0.0         43       27.5      160.8       27.5       27.4       13.8     1019.2       27.5       20.5        0.0        0.0        0.0       0.00        0.0       0.00       0.37        0.0
10:17              70        0.0         43       27.6      160.8       27.6       27.5       13.9     1019.2       27.6       20.5        0.0        0.0        0.0       0.00        0.0       0.00       0.37        0.0
10:20              65        0.0         43       27.7      160.8       27.7       27.6       14.0     1019.2       27.7       20.5        0.0        0.0        0.0       0.00        0.0       0.00       0.37        0.0
10:21              65        0.0         42       27.7      160.8       27.7       27.6       13.7     1019.2       27.8       20.5        0.0        0.0        0.0       0.00        0.0       0.00       0.37        0.0
10:23              13        0.0         42       27.8      160.8       27.8       27.7       13.8     1019.2       27.8       20.5        0.0        0.0        0.0       0.00        0.0       0.00       0.37        0.0
10:26             331        0.0         43       27.9      160.8       27.9       27.8       14.2     1019.2       27.9       20.5        0.0        0.0        0.0       0.00        0.0       0.00       0.37        0.0
10:28             331        0.0         42       28.0      160.8       28.0       27.8       13.9     1019.2       28.0       20.5        0.0        0.0        0.0       0.00        0.0       0.00       0.37        0.0
10:30             331        0.0         41       28.1      160.8       28.1       27.8       13.6     1019.2       28.1       20.5        0.0        0.0        0.0       0.00        0.0       0.00       0.37        0.0
10:31             331        0.0         42       28.1      160.8       28.1       27.9       14.0     1019.2       28.1       20.5        0.0        0.0        0.0       0.00        0.0       0.00       0.43        0.0
10:34             331        0.0         42       28.1      160.8       28.1       27.9       14.0     1019.2       28.1       20.5        0.0        0.0        0.0       0.00        0.0       0.00       0.43        0.0
10:36             331        0.0         41       28.2      160.8       28.2       27.9       13.7     1019.2       28.2       20.5        0.0        0.0        0.0       0.00        0.0       0.00       0.43        0.0
10:38              54        0.0         41       28.3      160.8       28.3       28.0       13.8     1019.2       28.3       20.5        0.0        0.0        0.0       0.00        0.0       0.00       0.43        0.0
10:40               5        0.0         42       28.4      160.8       28.4       28.2       14.3     1019.2       28.4       20.5        0.0        0.0        0.0       0.00        0.0       0.00       0.43        0.0
10:42               5        0.0         42       28.5      160.8       28.5       28.3       14.4     1019.2       28.5       20.5        0.0        0.0        0.0       0.00        0.0       0.00       0.43        0.0
10:44               5        0.0         42       28.7      160.8       28.7       28.4       14.5     1019.2       28.7       20.5        0.0        0.0        0.0       0.00        0.0       0.00       0.43        0.0
10:45               5        0.0         41       28.7      160.8       28.7       28.4       14.2     1019.2       28.7       20.5        0.0        0.0        0.0       0.00        0.0       0.00       0.50        0.0
10:48               5        0.0         41       28.8      160.8       28.8       28.5       14.3     1019.1       28.8       20.5        0.0        0.0        0.0       0.00        0.0       0.00       0.50        0.0
10:50               5        0.0         40       28.9      160.8       28.9       28.5       13.9     1019.2       28.9       20.5        0.0        0.0        0.0       0.00        0.0       0.00       0.50        0.0
10:52               5        0.0         41       28.9      160.8       28.9       28.6       14.3     1019.1       28.9       20.5        0.0        0.0        0.0       0.00        0.0       0.00       0.50        0.0
10:53               5        0.0         41       28.9      160.8       28.9       28.6       14.4     1019.1       28.9       20.5        0.0        0.0        0.0       0.00        0.0       0.00       0.50        0.0
10:55               5        0.0         40       29.0      160.8       29.0       28.6       14.0     1019.1       29.0       20.5        0.0        0.0        0.0       0.00        0.0       0.00       0.50        0.0
10:58               5        0.0         39       29.1      160.8       29.1       28.6       13.7     1019.1       29.1       20.5        0.0        0.0        0.0       0.00        0.0       0.00       0.50        0.0
11:00               5        0.0         40       29.2      160.8       29.2       28.8       14.2     1019.0       29.2       20.5        0.0        0.0        0.0       0.00        0.0       0.00       0.50        0.0
11:01               9        0.0         39       29.3      160.8       29.3       28.8       13.9     1019.1       29.3       20.5        0.0        0.0        0.0       0.00        0.0       0.00       0.58        0.0
11:04              36        0.0         39       29.4      160.8       29.4       28.9       14.0     1019.1       29.4       20.5        0.0        0.0        0.0       0.00        0.0       0.00       0.58        0.0
11:05              36        0.0         38       29.4      160.8       29.4       28.9       13.7     1019.1       29.4       20.5        0.0        0.0        0.0       0.00        0.0       0.00       0.58        0.0
11:07              36        0.0         38       29.6      160.8       29.6       29.0       13.8     1019.0       29.6       20.5        0.0        0.0        0.0       0.00        0.0       0.00       0.58        0.0
11:10              36        0.0         38       29.6      160.8       29.6       29.0       13.8     1019.0       29.6       20.5        0.0        0.0        0.0       0.00        0.0       0.00       0.58        0.0
11:12              36        0.0         38       29.7      160.8       29.7       29.1       13.9     1019.0       29.7       20.5        0.0        0.0        0.0       0.00        0.0       0.00       0.58        0.0
11:14              36        0.0         38       29.8      160.8       29.8       29.2       13.9     1019.0       29.8       20.5        0.0        0.0        0.0       0.00        0.0       0.00       0.58        0.0
11:16              36        0.0         38       29.9      160.8       29.9       29.4       14.1     1018.9       29.9       20.5        0.0        0.0        0.0       0.00        0.0       0.00       0.66        0.0
11:18              36        0.0         37       30.1      160.8       30.1       29.4       13.8     1018.9       30.1       20.5        0.0        0.0        0.0       0.00        0.0       0.00       0.66        0.0
11:20              36        0.0         37       30.2      160.8       30.2       29.5       13.9     1018.9       30.2       20.5        0.0        0.0        0.0       0.00        0.0       0.00       0.66        0.0
11:22              36        0.0         37       30.3      160.8       30.3       29.7       14.0     1018.8       30.3       20.5        0.0        0.0        0.0       0.00        0.0       0.00       0.66        0.0
11:24              36        0.0         37       30.4      160.8       30.4       29.8       14.1     1018.8       30.4       20.5        0.0        0.0        0.0       0.00        0.0       0.00       0.66        0.0
11:26              36        0.0         37       30.4      160.8       30.4       29.9       14.1     1018.8       30.4       20.5        0.0        0.0        0.0       0.00        0.0       0.00       0.66        0.0
11:28              36        0.0         36       30.5      160.8       30.5       29.8       13.8     1018.9       30.5       20.5        0.0        0.0        0.0       0.00        0.0       0.00       0.66        0.0
11:30              36        0.0         35       30.6      160.8       30.6       29.8       13.4     1018.8       30.6       20.5        0.0        0.0        0.0       0.00        0.0       0.00       0.66        0.0
11:32              36        0.0         35       30.7      160.8       30.7       29.9       13.5     1018.8       30.7       20.5        0.0        0.0        0.0       0.00        0.0       0.00       0.75        0.0
11:33              36        0.0         35       30.9      160.8       30.9       30.1       13.7     1018.7       30.9       20.5        0.0        0.0        0.0       0.00        0.0       0.00       0.75        0.0
11:36              36        0.0         35       31.1      160.8       31.1       30.3       13.8     1018.8       31.1       20.5        0.0        0.0        0.0       0.00        0.0       0.00       0.75        0.0
11:37              65        0.0         34       31.3      160.8       31.3       30.5       13.6     1018.7       31.3       20.5        0.0        0.0        0.0       0.00        0.0       0.00       0.75        0.0
11:39              67        0.0         33       31.4      160.8       31.4       30.5       13.2     1018.8       31.4       20.5        0.0        0.0        0.0       0.00        0.0       0.00       0.75        0.0
11:42              69        0.0         33       31.6      160.8       31.6       30.7       13.4     1018.7       31.6       20.5        0.0        0.0        0.0       0.00        0.0       0.00       0.75        0.0
11:44              69        0.0         33       31.8      160.8       31.8       30.9       13.5     1018.6       31.8       20.5        0.0        0.0        0.0       0.00        0.0       0.00       0.75        0.0
11:46              69        0.0         33       31.9      160.8       31.9       31.1       13.7     1018.7       31.9       20.5        0.0        0.0        0.0       0.00        0.0       0.00       0.85        0.0
11:48              69        0.0         33       32.1      160.8       32.1       31.3       13.8     1018.6       32.1       20.5        0.0        0.0        0.0       0.00        0.0       0.00       0.85        0.0
11:50              69        0.0         33       32.2      160.8       32.2       31.4       13.9     1018.6       32.2       20.5        0.0        0.0        0.0       0.00        0.0       0.00       0.85        0.0
11:52              69        0.0         32       32.2      160.8       32.2       31.3       13.4     1018.6       32.2       20.5        0.0        0.0        0.0       0.00        0.0       0.00       0.85        0.0
11:54              69        0.0         32       32.2      160.8       32.2       31.3       13.5     1018.6       32.2       20.5        0.0        0.0        0.0       0.00        0.0       0.00       0.85        0.0
11:56              69        0.0         32       32.3      160.8       32.3       31.5       13.5     1018.6       32.3       20.5        0.0        0.0        0.0       0.00        0.0       0.00       0.85        0.0
11:58              69        0.0         32       32.4      160.8       32.4       31.5       13.6     1018.6       32.4       20.5        0.0        0.0        0.0       0.00        0.0       0.00       0.85        0.0
12:00              73        0.0         32       32.5      160.8       32.5       31.7       13.7     1018.5       32.5       20.5        0.0        0.0        0.0       0.00        0.0       0.00       0.85        0.0
12:01             113        0.0         31       32.6      160.8       32.6       31.7       13.3     1018.6       32.6       20.5        0.0        0.0        0.0       0.00        0.0       0.00       0.96        0.0
12:03             112        0.0         30       32.7      160.8       32.7       31.6       12.8     1018.6       32.7       20.5        0.0        0.0        0.0       0.00        0.0       0.00       0.96        0.0
12:06             112        0.0         31       32.7      160.8       32.7       31.7       13.3     1018.4       32.7       20.5        0.0        0.0        0.0       0.00        0.0       0.00       0.96        0.0
12:08             112        0.0         31       32.7      160.8       32.7       31.8       13.4     1018.4       32.7       20.5        0.0        0.0        0.0       0.00        0.0       0.00       0.96        0.0
12:10             112        0.0         31       32.7      160.8       32.7       31.8       13.4     1018.4       32.7       20.5        0.0        0.0        0.0       0.00        0.0       0.00       0.96        0.0
12:12             112        0.0         31       32.7      160.8       32.7       31.8       13.4     1018.4       32.7       20.5        0.0        0.0        0.0       0.00        0.0       0.00       0.96        0.0
12:13             112        0.0         31       32.8      160.8       32.8       31.9       13.4     1018.4       32.8       20.5        0.0        0.0        0.0       0.00        0.0       0.00       0.96        0.0
12:15             112        0.0         31       32.9      160.8       32.9       32.0       13.5     1018.4       32.9       20.5        0.0        0.0        0.0       0.00        0.0       0.00       1.07        0.0
12:18             112        0.0         31       33.0      160.8       33.0       32.1       13.6     1018.2       33.0       20.5        0.0        0.0        0.0       0.00        0.0       0.00       1.07        0.0
12:20             112        0.0         30       33.1      160.8       33.1       32.1       13.2     1018.3       33.1       20.5        0.0        0.0        0.0       0.00        0.0       0.00       1.07        0.0
12:22             112        0.0         30       33.2      160.8       33.2       32.2       13.3     1018.2       33.2       20.5        0.0        0.0        0.0       0.00        0.0       0.00       1.07        0.0
12:24             112        0.0         30       33.3      160.8       33.3       32.3       13.4     1018.2       33.3       20.5        0.0        0.0        0.0       0.00        0.0       0.00       1.07        0.0
12:25             112        0.0         29       33.3      160.8       33.3       32.3       12.9     1018.2       33.3       20.5        0.0        0.0        0.0       0.00        0.0       0.00       1.07        0.0
12:28             112        0.0         28       33.4      160.8       33.4       32.2       12.4     1018.2       33.4       20.5        0.0        0.0        0.0       0.00        0.0       0.00       1.07        0.0
12:30             112        0.0         28       33.4      160.8       33.4       32.3       12.5     1018.1       33.4       20.5        0.0        0.0        0.0       0.00        0.0       0.00       1.07        0.0
12:32             112        0.0         27       33.5      160.8       33.5       32.2       12.0     1018.2       33.5       20.5        0.0        0.0        0.0       0.00        0.0       0.00       1.19        0.0
12:34             112        0.0         26       33.6      160.8       33.6       32.2       11.5     1018.1       33.6       20.5        0.0        0.0        0.0       0.00        0.0       0.00       1.19        0.0
12:36             113        0.0         27       33.8      160.8       33.8       32.5       12.2     1018.1       33.8       20.5        0.0        0.0        0.0       0.00        0.0       0.00       1.19        0.0
12:38             113        0.0         26       33.9      160.8       33.9       32.5       11.7     1018.1       33.9       20.5        0.0        0.0        0.0       0.00        0.0       0.00       1.19        0.0
12:40             113        0.0         26       34.0      160.8       34.0       32.7       11.8     1018.1       34.0       20.5        0.0        0.0        0.0       0.00        0.0       0.00       1.19        0.0
12:42             113        0.0         26       34.1      160.8       34.1       32.8       11.9     1018.0       34.1       20.5        0.0        0.0        0.0       0.00        0.0       0.00       1.19        0.0
12:44             113        0.0         26       34.1      160.8       34.1       32.8       11.9     1018.1       34.1       20.5        0.0        0.0        0.0       0.00        0.0       0.00       1.19        0.0
12:46             113        0.0         25       34.1      160.8       34.1       32.7       11.3     1018.1       34.1       20.5        0.0        0.0        0.0       0.00        0.0       0.00       1.32        0.0
12:48             113        0.0         25       34.1      160.8       34.1       32.6       11.3     1018.0       34.1       20.5        0.0        0.0        0.0       0.00        0.0       0.00       1.32        0.0
12:50             113        0.0         26       34.1      160.8       34.1       32.7       11.9     1018.0       34.1       20.5        0.0        0.0        0.0       0.00        0.0       0.00       1.32        0.0
12:52             116        0.0         26       34.2      160.8       34.2       32.9       11.9     1018.0       34.2       20.5        0.0        0.0        0.0       0.00        0.0       0.00       1.32        0.0
12:53             116        0.0         26       34.3      160.8       34.3       33.0       12.0     1017.8       34.3       20.5        0.0        0.0        0.0       0.00        0.0       0.00       1.32        0.0
12:55             117        0.0         26       34.3      160.8       34.3       33.1       12.1     1017.8       34.3       20.5        0.0        0.0        0.0       0.00        0.0       0.00       1.32        0.0
12:58             117        0.0         26       34.4      160.8       34.4       33.2       12.2     1017.8       34.4       20.5        0.0        0.0        0.0       0.00        0.0       0.00       1.32        0.0
13:00             117        0.0         26       34.6      160.8       34.6       33.3       12.3     1017.7       34.6       20.5        0.0        0.0        0.0       0.00        0.0       0.00       1.32        0.0
13:02             117        0.0         25       34.6      160.8       34.6       33.3       11.7     1017.7       34.6       20.5        0.0        0.0        0.0       0.00        0.0       0.00       1.45        0.0
13:04             117        0.0         25       34.7      160.8       34.7       33.4       11.8     1017.7       34.7       20.5        0.0        0.0        0.0       0.00        0.0       0.00       1.45        0.0
13:05             117        0.0         25       34.7      160.8       34.7       33.4       11.8     1017.7       34.7       20.5        0.0        0.0        0.0       0.00        0.0       0.00       1.45        0.0
13:08             117        0.0         25       34.7      160.8       34.7       33.4       11.8     1017.6       34.7       20.5        0.0        0.0        0.0       0.00        0.0       0.00       1.45        0.0
13:10             121        0.0         25       34.8      160.8       34.8       33.5       11.9     1017.6       34.8       20.5        0.0        0.0        0.0       0.00        0.0       0.00       1.45        0.0
13:12             126        0.0         25       34.9      160.8       34.9       33.6       12.0     1017.7       34.9       20.5        0.0        0.0        0.0       0.00        0.0       0.00       1.45        0.0
13:14             128        0.0         25       35.0      160.8       35.0       33.7       12.1     1017.6       35.0       20.5        0.0        0.0        0.0       0.00        0.0       0.00       1.45        0.0
13:16             126        0.0         25       35.1      160.8       35.1       33.8       12.1     1017.4       35.1       20.5        0.0        0.0        0.0       0.00        0.0       0.00       1.59        0.0
13:18             126        0.0         24       35.1      160.8       35.1       33.7       11.5     1017.5       35.1       20.5        0.0        0.0        0.0       0.00        0.0       0.00       1.59        0.0
13:19             126        0.0         24       35.1      160.8       35.1       33.7       11.5     1017.4       35.2       20.5        0.0        0.0        0.0       0.00        0.0       0.00       1.59        0.0
13:22             126        0.0         24       35.2      160.8       35.2       33.8       11.6     1017.4       35.2       20.5        0.0        0.0        0.0       0.00        0.0       0.00       1.59        0.0
13:24             126        0.0         23       35.2      160.8       35.2       33.6       10.9     1017.3       35.2       20.5        0.0        0.0        0.0       0.00        0.0       0.00       1.59        0.0
13:26             126        0.0         24       35.2      160.8       35.2       33.8       11.6     1017.3       35.2       20.5        0.0        0.0        0.0       0.00        0.0       0.00       1.59        0.0
13:28             126        0.0         24       35.2      160.8       35.2       33.9       11.6     1017.2       35.2       20.5        0.0        0.0        0.0       0.00        0.0       0.00       1.59        0.0
13:30             126        0.0         24       35.3      160.8       35.3       33.9       11.7     1017.2       35.3       20.5        0.0        0.0        0.0       0.00        0.0       0.00       1.59        0.0
13:32             123        0.0         24       35.3      160.8       35.3       34.0       11.7     1017.2       35.3       20.5        0.0        0.0        0.0       0.00        0.0       0.00       1.72        0.0
13:34             123        0.0         23       35.4      160.8       35.4       34.0       11.2     1017.2       35.4       20.5        0.0        0.0        0.0       0.00        0.0       0.00       1.72        0.0
13:36             123        0.0         22       35.5      160.8       35.5       33.9       10.5     1017.2       35.5       20.5        0.0        0.0        0.0       0.00        0.0       0.00       1.72        0.0
13:38             124        0.0         22       35.6      160.8       35.6       34.0       10.6     1017.1       35.6       20.5        0.0        0.0        0.0       0.00        0.0       0.00       1.72        0.0
13:40             123        0.0         22       35.7      160.8       35.7       34.1       10.7     1017.0       35.7       20.5        0.0        0.0        0.0       0.00        0.0       0.00       1.72        0.0
13:42             123        0.0         22       35.7      160.8       35.7       34.2       10.7     1017.0       35.7       20.5        0.0        0.0        0.0       0.00        0.0       0.00       1.72        0.0
13:44             124        0.0         22       35.8      160.8       35.8       34.2       10.8     1016.9       35.8       20.5        0.0        0.0        0.0       0.00        0.0       0.00       1.72        0.0
13:46             123        0.0         22       35.8      160.8       35.8       34.3       10.8     1017.0       35.8       20.5        0.0        0.0        0.0       0.00        0.0       0.00       1.87        0.0
13:48             123        0.0         22       35.9      160.8       35.9       34.4       10.9     1017.0       35.9       20.5        0.0        0.0        0.0       0.00        0.0       0.00       1.87        0.0
13:49             124        0.0         22       35.9      160.8       35.9       34.4       10.9     1017.0       35.9       20.5        0.0        0.0        0.0       0.00        0.0       0.00       1.87        0.0
13:52             120        0.0         22       36.0      160.8       36.0       34.5       11.0     1016.9       36.0       20.5        0.0        0.0        0.0       0.00        0.0       0.00       1.87        0.0
13:54             120        0.0         22       36.1      160.8       36.1       34.6       11.0     1016.9       36.1       20.5        0.0        0.0        0.0       0.00        0.0       0.00       1.87        0.0
13:56             120        0.0         22       36.2      160.8       36.2       34.7       11.1     1016.9       36.2       20.5        0.0        0.0        0.0       0.00        0.0       0.00       1.87        0.0
13:58             120        0.0         21       36.2      160.8       36.2       34.6       10.4     1016.9       36.2       20.5        0.0        0.0        0.0       0.00        0.0       0.00       1.87        0.0
14:00             120        0.0         21       36.3      160.8       36.3       34.7       10.5     1016.8       36.3       20.5        0.0        0.0        0.0       0.00        0.0       0.00       1.87        0.0
14:02             120        0.0         22       36.3      160.8       36.3       34.9       11.2     1016.7       36.3       20.5        0.0        0.0        0.0       0.00        0.0       0.00       2.02        0.0
14:03             120        0.0         22       36.2      160.8       36.2       34.7       11.1     1016.7       36.3       20.5        0.0        0.0        0.0       0.00        0.0       0.00       2.02        0.0
14:06             120        0.0         22       36.1      160.8       36.1       34.6       11.0     1016.7       36.3       20.5        0.0        0.0        0.0       0.00        0.0       0.00       2.02        0.0
14:07             120        0.0         21       36.1      160.8       36.1       34.5       10.4     1016.7       36.3       20.5        0.0        0.0        0.0       0.00        0.0       0.00       2.02        0.0
14:10             120        0.0         21       36.2      160.8       36.2       34.5       10.4     1016.6       36.3       20.5        0.0        0.0        0.0       0.00        0.0       0.00       2.02        0.0
14:11             120        0.0         21       36.2      160.8       36.2       34.6       10.4     1016.5       36.3       20.5        0.0        0.0        0.0       0.00        0.0       0.00       2.02        0.0
14:14             120        0.0         21       36.2      160.8       36.2       34.6       10.4     1016.5       36.3       20.5        0.0        0.0        0.0       0.00        0.0       0.00       2.02        0.0
14:16             120        0.0         21       36.3      160.8       36.3       34.7       10.5     1016.5       36.3       20.5        0.0        0.0        0.0       0.00        0.0       0.00       2.16        0.0
14:18             120        0.0         21       36.3      160.8       36.3       34.7       10.5     1016.5       36.3       20.5        0.0        0.0        0.0       0.00        0.0       0.00       2.16        0.0
14:19             120        0.0         21       36.4      160.8       36.4       34.9       10.6     1016.5       36.4       20.5        0.0        0.0        0.0       0.00        0.0       0.00       2.16        0.0
14:21             120        0.0         21       36.5      160.8       36.5       35.0       10.7     1016.4       36.5       20.5        0.0        0.0        0.0       0.00        0.0       0.00       2.16        0.0
14:24             120        0.0         19       36.6      160.8       36.6       34.8        9.3     1016.4       36.6       20.5        0.0        0.0        0.0       0.00        0.0       0.00       2.16        0.0
14:25             120        0.0         20       36.6      160.8       36.6       34.9       10.0     1016.4       36.6       20.5        0.0        0.0        0.0       0.00        0.0       0.00       2.16        0.0
14:28             120        0.0         20       36.7      160.8       36.7       35.0       10.1     1016.4       36.7       20.5        0.0        0.0        0.0       0.00        0.0       0.00       2.16        0.0
14:30             120        0.0         19       36.8      160.8       36.8       35.0        9.4     1016.3       36.8       20.5        0.0        0.0        0.0       0.00        0.0       0.00       2.16        0.0
14:31             120        0.0         19       36.8      160.8       36.8       35.0        9.4     1016.4       36.8       20.5        0.0        0.0        0.0       0.00        0.0       0.00       2.32        0.0
14:33             120        0.0         19       36.9      160.8       36.9       35.1        9.5     1016.3       36.9       20.5        0.0        0.0        0.0       0.00        0.0       0.00       2.32        0.0
14:36             120        0.0         19       36.8      160.8       36.8       35.0        9.4     1016.3       36.9       20.5        0.0        0.0        0.0       0.00        0.0       0.00       2.32        0.0
14:38             120        0.0         18       36.8      160.8       36.8       34.9        8.6     1016.3       36.9       20.5        0.0        0.0        0.0       0.00        0.0       0.00       2.32        0.0
14:40             120        0.0         18       36.8      160.8       36.8       34.9        8.6     1016.2       36.9       20.5        0.0        0.0        0.0       0.00        0.0       0.00       2.32        0.0
14:42             120        0.0         18       36.9      160.8       36.9       34.9        8.7     1016.2       36.9       20.5        0.0        0.0        0.0       0.00        0.0       0.00       2.32        0.0
14:44             120        0.0         19       36.9      160.8       36.9       35.2        9.5     1016.2       36.9       20.5        0.0        0.0        0.0       0.00        0.0       0.00       2.32        0.0
14:45             120        0.0         18       37.1      160.8       37.1       35.1        8.8     1016.2       37.1       20.5        0.0        0.0        0.0       0.00        0.0       0.00       2.47        0.0
14:48             130        0.0         18       37.1      160.8       37.1       35.2        8.9     1016.2       37.1       20.5        0.0        0.0        0.0       0.00        0.0       0.00       2.47        0.0
14:50             130        0.0         18       37.2      160.8       37.2       35.3        8.9     1016.3       37.2       20.5        0.0        0.0        0.0       0.00        0.0       0.00       2.47        0.0
14:52             136        0.0         19       37.3      160.8       37.3       35.6        9.8     1016.3       37.3       20.5        0.0        0.0        0.0       0.00        0.0       0.00       2.47        0.0
14:54             149        0.0         18       37.3      160.8       37.3       35.4        9.0     1016.2       37.3       20.5        0.0        0.0        0.0       0.00        0.0       0.00       2.47        0.0
14:56             152        0.0         18       37.4      160.8       37.4       35.5        9.1     1016.2       37.4       20.5        0.0        0.0        0.0       0.00        0.0       0.00       2.47        0.0
14:57             152        0.0         17       37.4      160.8       37.4       35.4        8.3     1016.0       37.4       20.5        0.0        0.0        0.0       0.00        0.0       0.00       2.47        0.0
15:00             152        0.0         18       37.4      160.8       37.4       35.6        9.1     1016.1       37.4       20.5        0.0        0.0        0.0       0.00        0.0       0.00       2.47        0.0
15:02             152        0.0         17       37.5      160.8       37.5       35.5        8.3     1016.0       37.5       20.5        0.0        0.0        0.0       0.00        0.0       0.00       2.64        0.0
15:03             152        0.0         17       37.6      160.8       37.6       35.6        8.4     1016.0       37.6       20.5        0.0        0.0        0.0       0.00        0.0       0.00       2.64        0.0
15:06             151        0.0         17       37.6      160.8       37.6       35.6        8.4     1016.0       37.6       20.5        0.0        0.0        0.0       0.00        0.0       0.00       2.64        0.0
15:08             151        0.0         18       37.6      160.8       37.6       35.8        9.3     1016.0       37.6       20.5        0.0        0.0        0.0       0.00        0.0       0.00       2.64        0.0
15:10             151        0.0         17       37.6      160.8       37.6       35.5        8.4     1016.0       37.6       20.5        0.0        0.0        0.0       0.00        0.0       0.00       2.64        0.0
15:12             151        0.0         17       37.6      160.8       37.6       35.5        8.4     1016.0       37.6       20.5        0.0        0.0        0.0       0.00        0.0       0.00       2.64        0.0
15:14             151        0.0         17       37.6      160.8       37.6       35.5        8.4     1015.9       37.6       20.5        0.0        0.0        0.0       0.00        0.0       0.00       2.64        0.0
15:16             151        0.0         17       37.6      160.8       37.6       35.6        8.4     1016.0       37.6       20.5        0.0        0.0        0.0       0.00        0.0       0.00       2.80        0.0
15:18             151        0.0         17       37.7      160.8       37.7       35.7        8.5     1015.9       37.7       20.5        0.0        0.0        0.0       0.00        0.0       0.00       2.80        0.0
15:20             151        0.0         16       37.7      160.8       37.7       35.6        7.6     1015.9       37.7       20.5        0.0        0.0        0.0       0.00        0.0       0.00       2.80        0.0
15:22             151        0.0         17       37.7      160.8       37.7       35.7        8.5     1016.0       37.7       20.5        0.0        0.0        0.0       0.00        0.0       0.00       2.80        0.0
15:24             151        0.0         16       37.8      160.8       37.8       35.6        7.7     1016.0       37.8       20.5        0.0        0.0        0.0       0.00        0.0       0.00       2.80        0.0
15:26             151        0.0         16       37.8      160.8       37.8       35.7        7.7     1015.8       37.8       20.5        0.0        0.0        0.0       0.00        0.0       0.00       2.80        0.0
15:28             151        0.0         16       37.9      160.8       37.9       35.8        7.8     1015.9       37.9       20.5        0.0        0.0        0.0       0.00        0.0       0.00       2.80        0.0
15:29             151        0.0         17       37.9      160.8       37.9       35.9        8.7     1015.8       37.9       20.5        0.0        0.0        0.0       0.00        0.0       0.00       2.80        0.0
15:32             151        0.0         17       37.7      160.8       37.7       35.7        8.5     1015.8       37.9       20.5        0.0        0.0        0.0       0.00        0.0       0.00       2.96        0.0
15:34             151        0.0         18       37.4      160.8       37.4       35.5        9.1     1015.8       37.9       20.5        0.0        0.0        0.0       0.00        0.0       0.00       2.96        0.0
15:36             151        0.0         17       36.9      160.8       36.9       34.8        7.8     1015.7       37.9       20.5        0.0        0.0        0.0       0.00        0.0       0.00       2.96        0.0
15:38             151        0.0         18       36.6      160.8       36.6       34.5        8.4     1015.7       37.9       20.5        0.0        0.0        0.0       0.00        0.0       0.00       2.96        0.0
15:40             151        0.0         18       36.3      160.8       36.3       34.3        8.2     1015.8       37.9       20.5        0.0        0.0        0.0       0.00        0.0       0.00       2.96        0.0
15:41             151        0.0         20       36.3      160.8       36.3       34.5        9.8     1015.8       37.9       20.5        0.0        0.0        0.0       0.00        0.0       0.00       2.96        0.0
15:44             151        0.0         17       36.3      160.8       36.3       34.1        7.4     1015.8       37.9       20.5        0.0        0.0        0.0       0.00        0.0       0.00       2.96        0.0
15:46             151        0.0         17       36.3      160.8       36.3       34.2        7.4     1015.8       37.9       20.5        0.0        0.0        0.0       0.00        0.0       0.00       3.11        0.0
15:48             151        0.0         16       36.4      160.8       36.4       34.2        6.6     1015.7       37.9       20.5        0.0        0.0        0.0       0.00        0.0       0.00       3.11        0.0
15:50             151        0.0         17       36.6      160.8       36.6       34.4        7.6     1015.8       37.9       20.5        0.0        0.0        0.0       0.00        0.0       0.00       3.11        0.0
15:51             151        0.0         16       36.6      160.8       36.6       34.3        6.7     1015.8       37.9       20.5        0.0        0.0        0.0       0.00        0.0       0.00       3.11        0.0
15:54             151        0.0         17       36.7      160.8       36.7       34.5        7.7     1015.6       37.9       20.5        0.0        0.0        0.0       0.00        0.0       0.00       3.11        0.0
15:56             151        0.0         16       36.7      160.8       36.7       34.5        6.8     1015.6       37.9       20.5        0.0        0.0        0.0       0.00        0.0       0.00       3.11        0.0
15:58             151        0.0         16       36.8      160.8       36.8       34.6        6.9     1015.5       37.9       20.5        0.0        0.0        0.0       0.00        0.0       0.00       3.11        0.0
16:00             151        0.0         16       36.9      160.8       36.9       34.6        7.0     1015.4       37.9       20.5        0.0        0.0        0.0       0.00        0.0       0.00       3.11        0.0
16:02             151        0.0         17       37.0      160.8       37.0       34.9        7.9     1015.5       37.9       20.5        0.0        0.0        0.0       0.00        0.0       0.00       3.27        0.0
16:03             154        0.0         17       37.2      160.8       37.2       35.1        8.1     1015.5       37.9       20.5        0.0        0.0        0.0       0.00        0.0       0.00       3.27        0.0
16:06             154        0.0         16       37.3      160.8       37.3       35.1        7.3     1015.5       37.9       20.5        0.0        0.0        0.0       0.00        0.0       0.00       3.27        0.0
16:08             154        0.0         16       37.4      160.8       37.4       35.2        7.4     1015.6       37.9       20.5        0.0        0.0        0.0       0.00        0.0       0.00       3.27        0.0
16:10             154        0.0         16       37.6      160.8       37.6       35.4        7.5     1015.6       37.9       20.5        0.0        0.0        0.0       0.00        0.0       0.00       3.27        0.0
16:12             154        0.0         15       37.6      160.8       37.6       35.3        6.6     1015.6       37.9       20.5        0.0        0.0        0.0       0.00        0.0       0.00       3.27        0.0
16:14             154        0.0         16       37.8      160.8       37.8       35.6        7.7     1015.6       37.9       20.5        0.0        0.0        0.0       0.00        0.0       0.00       3.27        0.0
16:15             154        0.0         17       37.9      160.8       37.9       36.0        8.7     1015.6       37.9       20.5        0.0        0.0        0.0       0.00        0.0       0.00       3.43        0.0
16:18             154        0.0         16       38.0      160.8       38.0       35.9        7.8     1015.6       38.0       20.5        0.0        0.0        0.0       0.00        0.0       0.00       3.43        0.0
16:19             154        0.0         17       38.1      160.8       38.1       36.1        8.8     1015.6       38.1       20.5        0.0        0.0        0.0       0.00        0.0       0.00       3.43        0.0
16:22             132        0.0         15       38.2      160.8       38.2       35.9        7.0     1015.6       38.2       20.5        0.0        0.0        0.0       0.00        0.0       0.00       3.43        0.0
16:24             132        0.0         15       38.2      160.8       38.2       36.0        7.1     1015.6       38.2       20.5        0.0        0.0        0.0       0.00        0.0       0.00       3.43        0.0
16:26             133        0.0         15       38.3      160.8       38.3       36.1        7.2     1015.7       38.3       20.5        0.0        0.0        0.0       0.00        0.0       0.00       3.43        0.0
16:28             133        0.0         15       38.4      160.8       38.4       36.2        7.3     1015.7       38.4       20.5        0.0        0.0        0.0       0.00        0.0       0.00       3.43        0.0
16:30             133        0.0         15       38.5      160.8       38.5       36.3        7.3     1015.6       38.5       20.5        0.0        0.0        0.0       0.00        0.0       0.00       3.43        0.0
16:32             133        0.0         15       38.5      160.8       38.5       36.3        7.3     1015.6       38.6       20.5        0.0        0.0        0.0       0.00        0.0       0.00       3.60        0.0
16:33             133        0.0         16       38.6      160.8       38.6       36.5        8.3     1015.6       38.6       20.5        0.0        0.0        0.0       0.00        0.0       0.00       3.60        0.0
16:35             133        0.0         16       38.6      160.8       38.6       36.6        8.3     1015.6       38.6       20.5        0.0        0.0        0.0       0.00        0.0       0.00       3.60        0.0
16:38             133        0.0         16       38.7      160.8       38.7       36.7        8.4     1015.6       38.7       20.5        0.0        0.0        0.0       0.00        0.0       0.00       3.60        0.0
16:39             133        0.0         18       38.7      160.8       38.7       37.1       10.1     1015.6       38.7       20.5        0.0        0.0        0.0       0.00        0.0       0.00       3.60        0.0
16:42             133        0.0         19       38.7      160.8       38.7       37.4       11.0     1015.6       38.7       20.5        0.0        0.0        0.0       0.00        0.0       0.00       3.60        0.0
16:44             133        0.0         17       38.8      160.8       38.8       37.0        9.4     1015.6       38.8       20.5        0.0        0.0        0.0       0.00        0.0       0.00       3.60        0.0
16:46             133        0.0         16       38.8      160.8       38.8       36.9        8.5     1015.6       38.8       20.5        0.0        0.0        0.0       0.00        0.0       0.00       3.78        0.0
16:48             133        0.0         15       38.8      160.8       38.8       36.6        7.5     1015.5       38.8       20.5        0.0        0.0        0.0       0.00        0.0       0.00       3.78        0.0
16:50             133        0.0         16       38.8      160.8       38.8       36.8        8.5     1015.5       38.8       20.5        0.0        0.0        0.0       0.00        0.0       0.00       3.78        0.0
16:52             129        0.0         17       38.6      160.8       38.6       36.8        9.2     1015.5       38.8       20.5        0.0        0.0        0.0       0.00        0.0       0.00       3.78        0.0
16:54             129        0.0         18       38.4      160.8       38.4       36.8        9.9     1015.6       38.8       20.5        0.0        0.0        0.0       0.00        0.0       0.00       3.78        0.0
16:56             129        0.0         18       38.3      160.8       38.3       36.6        9.8     1015.5       38.8       20.5        0.0        0.0        0.0       0.00        0.0       0.00       3.78        0.0
16:57             129        0.0         17       37.9      160.8       37.9       36.0        8.7     1015.5       38.8       20.5        0.0        0.0        0.0       0.00        0.0       0.00       3.78        0.0
17:00             129        0.0         17       37.6      160.8       37.6       35.6        8.4     1015.6       38.8       20.5        0.0        0.0        0.0       0.00        0.0       0.00       3.78        0.0
17:01             129        0.0         17       37.3      160.8       37.3       35.3        8.2     1015.6       38.8       20.5        0.0        0.0        0.0       0.00        0.0       0.00       3.94        0.0
17:03             128        0.0         18       37.1      160.8       37.1       35.2        8.9     1015.6       38.8       20.5        0.0        0.0        0.0       0.00        0.0       0.00       3.94        0.0
17:06             128        0.0         19       36.9      160.8       36.9       35.2        9.5     1015.5       38.8       20.5        0.0        0.0        0.0       0.00        0.0       0.00       3.94        0.0
17:08             128        0.0         20       36.9      160.8       36.9       35.3       10.3     1015.5       38.8       20.5        0.0        0.0        0.0       0.00        0.0       0.00       3.94        0.0
17:10             128        0.0         18       36.8      160.8       36.8       34.8        8.6     1015.5       38.8       20.5        0.0        0.0        0.0       0.00        0.0       0.00       3.94        0.0
17:12             128        0.0         19       36.7      160.8       36.7       34.9        9.4     1015.5       38.8       20.5        0.0        0.0        0.0       0.00        0.0       0.00       3.94        0.0
17:14             128        0.0         19       36.7      160.8       36.7       34.8        9.3     1015.5       38.8       20.5        0.0        0.0        0.0       0.00        0.0       0.00       3.94        0.0
17:16             128        0.0         19       36.7      160.8       36.7       34.8        9.3     1015.6       38.8       20.5        0.0        0.0        0.0       0.00        0.0       0.00       4.09        0.0
17:17             128        0.0         20       36.7      160.8       36.7       35.0       10.1     1015.6       38.8       20.5        0.0        0.0        0.0       0.00        0.0       0.00       4.09        0.0
17:19             128        0.0         19       36.7      160.8       36.7       34.8        9.3     1015.5       38.8       20.5        0.0        0.0        0.0       0.00        0.0       0.00       4.09        0.0
17:22             128        0.0         19       36.6      160.8       36.6       34.8        9.3     1015.6       38.8       20.5        0.0        0.0        0.0       0.00        0.0       0.00       4.09        0.0
17:24             128        0.0         19       36.6      160.8       36.6       34.7        9.2     1015.5       38.8       20.5        0.0        0.0        0.0       0.00        0.0       0.00       4.09        0.0
17:26             142        0.0         19       36.4      160.8       36.4       34.6        9.1     1015.7       38.8       20.5        0.0        0.0        0.0       0.00        0.0       0.00       4.09        0.0
17:28             142        0.0         20       36.4      160.8       36.4       34.7        9.8     1015.6       38.8       20.5        0.0        0.0        0.0       0.00        0.0       0.00       4.09        0.0
17:30             142        0.0         20       36.4      160.8       36.4       34.7        9.8     1015.6       38.8       20.5        0.0        0.0        0.0       0.00        0.0       0.00       4.09        0.0
17:32             147        0.0         20       36.4      160.8       36.4       34.7        9.8     1015.6       38.8       20.5        0.0        0.0        0.0       0.00        0.0       0.00       4.24        0.0
17:34             147        0.0         19       36.3      160.8       36.3       34.4        9.0     1015.7       38.8       20.5        0.0        0.0        0.0       0.00        0.0       0.00       4.24        0.0
17:36             147        0.0         19       36.2      160.8       36.2       34.3        9.0     1015.6       38.8       20.5        0.0        0.0        0.0       0.00        0.0       0.00       4.24        0.0
17:38             147        0.0         19       36.1      160.8       36.1       34.2        8.9     1015.7       38.8       20.5        0.0        0.0        0.0       0.00        0.0       0.00       4.24        0.0
17:40             147        0.0         19       36.1      160.8       36.1       34.1        8.8     1015.7       38.8       20.5        0.0        0.0        0.0       0.00        0.0       0.00       4.24        0.0
17:41             147        0.0         19       36.0      160.8       36.0       34.0        8.8     1015.7       38.8       20.5        0.0        0.0        0.0       0.00        0.0       0.00       4.24        0.0
17:44             147        0.0         20       35.9      160.8       35.9       34.1        9.4     1015.6       38.8       20.5        0.0        0.0        0.0       0.00        0.0       0.00       4.24        0.0
17:46             147        0.0         20       35.8      160.8       35.8       34.0        9.4     1015.6       38.8       20.5        0.0        0.0        0.0       0.00        0.0       0.00       4.39        0.0
17:48             147        0.0         20       35.8      160.8       35.8       33.9        9.3     1015.7       38.8       20.5        0.0        0.0        0.0       0.00        0.0       0.00       4.39        0.0
17:50             147        0.0         20       35.7      160.8       35.7       33.8        9.3     1015.6       38.8       20.5        0.0        0.0        0.0       0.00        0.0       0.00       4.39        0.0
17:52             147        0.0         20       35.5      160.8       35.5       33.6        9.1     1015.7       38.8       20.5        0.0        0.0        0.0       0.00        0.0       0.00       4.39        0.0
17:54             147        0.0         20       35.3      160.8       35.3       33.4        9.0     1015.6       38.8       20.5        0.0        0.0        0.0       0.00        0.0       0.00       4.39        0.0
17:56             147        0.0         19       35.1      160.8       35.1       33.1        8.0     1015.7       38.8       20.5        0.0        0.0        0.0       0.00        0.0       0.00       4.39        0.0
17:57             147        0.0         20       34.8      160.8       34.8       32.9        8.6     1015.7       38.8       20.5        0.0        0.0        0.0       0.00        0.0       0.00       4.39        0.0
18:00             147        0.0         20       34.6      160.8       34.6       32.6        8.3     1015.7       38.8       20.5        0.0        0.0        0.0       0.00        0.0       0.00       4.39        0.0
18:01             147        0.0         20       34.3      160.8       34.3       32.3        8.2     1015.7       38.8       20.5        0.0        0.0        0.0       0.00        0.0       0.00       4.52        0.0
18:03             147        0.0         20       34.1      160.8       34.1       32.0        7.9     1015.7       38.8       20.5        0.0        0.0        0.0       0.00        0.0       0.00       4.52        0.0